Regional Weather Roundup
Issued by NWS Sioux Falls, SD

Home | Current Version | Previous Version | Graphics & Text | Print | Product List | Glossary On
Versions: 1 2 3 4 5 6 7 8 9 10 11 12 13 14 15 16 17 18 19 20 21 22 23 24 25 26 27 28 29 30 31 32 33 34 35 36 37 38 39 40 41 42 43 44 45 46 47 48 49 50
000
ASUS43 KFSD 210002
RWRFSD

WEATHER ROUNDUP FOR SE SOUTH DAKOTA/SW MINNESOTA/NW IOWA
NATIONAL WEATHER SERVICE SIOUX FALLS SD
700 PM CDT MON OCT 20 2014

NOTE: "FAIR" INDICATES FEW OR NO CLOUDS BELOW 12,000 FEET WITH NO
SIGNIFICANT WEATHER AND OR OBSTRUCTIONS TO VISIBILITY.


SDZ038>040-050-052>070-210100-
SOUTHEAST SOUTH DAKOTA

CITY           SKY/WX    TMP DP  RH WIND       PRES   REMARKS
CHAMBERLAIN    CLEAR     61  38  42 SE7       29.99S
6HR MIN TEMP:  61; 6HR MAX TEMP:  73;

HURON          CLEAR     61  33  35 SE5       30.01S
6HR MIN TEMP:  61; 6HR MAX TEMP:  73;

MADISON        FAIR      57  36  44 CALM      30.04S
MITCHELL       CLEAR     59  36  42 SE6       30.03S
6HR MIN TEMP:  59; 6HR MAX TEMP:  72;

SIOUX FALLS    CLEAR     59  37  44 W3        30.03S
6HR MIN TEMP:  59; 6HR MAX TEMP:  70;

WINNER         FAIR      68  40  35 SE10      29.98F
YANKTON        CLEAR     63  37  39 SE3       30.03F
$$

MNZ071-072-080-081-089-090-097-098-210100-
SOUTHWEST MINNESOTA

CITY           SKY/WX    TMP DP  RH WIND       PRES   REMARKS
FAIRMONT       CLEAR     55  30  38 NW5       30.02S
JACKSON        CLEAR     54  36  50 N3        30.04R
LUVERNE        CLEAR     57  34  41 NW3       30.04S
MARSHALL       NOT AVBL
MONTEVIDEO     CLEAR     55  37  50 NE5       30.04S
PIPESTONE      CLEAR     63  36  36 CALM      30.04S
REDWOOD FALLS  CLEAR     61  39  44 N3        30.03R
TRACY          CLEAR     58  37  45 N5        30.04S
WINDOM         CLEAR     52  37  58 NW7       30.04R
WORTHINGTON    CLEAR     57  36  44 N3        30.05R
$$

IAZ001>003-012>014-020>022-031-032-NEZ013-014-SDZ071-210100-
NORTHWEST IOWA

CITY           SKY/WX    TMP DP  RH WIND       PRES   REMARKS
CHEROKEE       CLEAR     58  40  51 CALM      30.04R
DENISON        CLEAR     61  37  41 CALM      30.03S
ESTHERVILLE    CLEAR     57  38  48 N7        30.03R
LE MARS        CLEAR     57  39  51 CALM      30.04S
ORANGE CITY    CLEAR     63  37  39 CALM      30.04S HAZE
SHELDON        CLEAR     55  37  50 CALM      30.03R HAZE
SIOUX CITY     CLEAR     54  39  57 CALM      30.04S
6HR MIN TEMP:  54; 6HR MAX TEMP:  73;

SPENCER        CLEAR     54  38  54 NW5       30.03S
6HR MIN TEMP:  54; 6HR MAX TEMP:  71;

STORM LAKE     CLEAR     59  37  44 NW6       30.05S
$$

ABBREVIATIONS USED IN REMARKS
   TC - TEMPERATURE IN CELSIUS
  WCI - WIND CHILL INDEX
   HX - HEAT INDEX
  VSB - VISIBILITY




USA.gov is the U.S. government's official web portal to all federal, state and local government web resources and services.